TimeCST,TemperatureF,Dew PointF,Humidity,Sea Level PressureIn,VisibilityMPH,Wind Direction,Wind SpeedMPH,Gust SpeedMPH,PrecipitationIn,Events,Conditions,WindDirDegrees,DateUTC
12:14 AM,6.8,3.2,85,30.26,10.0,NW,8.1,-,N/A,,Scattered Clouds,310,2013-02-15 06:14:00
12:35 AM,6.8,3.2,85,30.27,10.0,NW,6.9,-,N/A,,Clear,310,2013-02-15 06:35:00
12:55 AM,6.8,5.0,92,30.27,10.0,NW,4.6,-,N/A,,Clear,320,2013-02-15 06:55:00
1:14 AM,6.8,3.2,85,30.27,10.0,NNW,3.5,-,N/A,,Clear,330,2013-02-15 07:14:00
1:35 AM,5.0,3.2,92,30.27,10.0,NNW,4.6,-,N/A,,Clear,330,2013-02-15 07:35:00
1:55 AM,3.2,3.2,100,30.27,10.0,NW,4.6,-,N/A,,Clear,320,2013-02-15 07:55:00
2:35 AM,3.2,1.4,92,30.28,10.0,NNW,4.6,-,N/A,,Clear,340,2013-02-15 08:35:00
2:54 AM,3.2,1.4,92,30.28,10.0,NW,3.5,-,N/A,,Clear,320,2013-02-15 08:54:00
3:15 AM,1.4,-0.4,92,30.28,10.0,NW,4.6,-,N/A,,Clear,310,2013-02-15 09:15:00
3:35 AM,-0.4,-0.4,100,30.28,10.0,NW,4.6,-,N/A,,Clear,310,2013-02-15 09:35:00
3:54 AM,-0.4,-2.2,92,30.28,10.0,WNW,5.8,-,N/A,,Clear,300,2013-02-15 09:54:00
4:35 AM,1.4,-0.4,92,30.29,10.0,WNW,5.8,-,N/A,,Clear,300,2013-02-15 10:35:00
4:54 AM,1.4,-0.4,92,30.29,10.0,NW,3.5,-,N/A,,Clear,310,2013-02-15 10:54:00
5:15 AM,-0.4,-2.2,92,30.30,7.0,NW,3.5,-,N/A,,Clear,320,2013-02-15 11:15:00
5:35 AM,-2.2,-4.0,92,30.31,7.0,Calm,Calm,-,N/A,,Scattered Clouds,0,2013-02-15 11:35:00
5:54 AM,-2.2,-2.2,100,30.31,7.0,NNW,3.5,-,N/A,,Scattered Clouds,330,2013-02-15 11:54:00
6:15 AM,-2.2,-5.8,85,30.31,7.0,Calm,Calm,-,N/A,,Scattered Clouds,0,2013-02-15 12:15:00
6:34 AM,-0.4,-2.2,92,30.31,10.0,North,3.5,-,N/A,,Overcast,10,2013-02-15 12:34:00
6:54 AM,-0.4,-2.2,92,30.32,10.0,Calm,Calm,-,N/A,Snow,Light Snow,0,2013-02-15 12:54:00
7:15 AM,-0.4,-2.2,92,30.32,10.0,Calm,Calm,-,N/A,,Mostly Cloudy,0,2013-02-15 13:15:00
7:34 AM,-0.4,-2.2,92,30.32,10.0,Calm,Calm,-,N/A,,Scattered Clouds,0,2013-02-15 13:34:00
7:55 AM,-2.2,-4.0,92,30.33,10.0,Calm,Calm,-,N/A,,Clear,0,2013-02-15 13:55:00
8:15 AM,-4.0,-5.8,92,30.33,10.0,Calm,Calm,-,N/A,,Clear,0,2013-02-15 14:15:00
8:34 AM,-2.2,-5.8,85,30.34,10.0,Calm,Calm,-,N/A,,Clear,0,2013-02-15 14:34:00
8:55 AM,-2.2,-5.8,85,30.34,10.0,Calm,Calm,-,N/A,,Clear,0,2013-02-15 14:55:00
9:14 AM,-2.2,-5.8,85,30.35,10.0,Calm,Calm,-,N/A,,Clear,0,2013-02-15 15:14:00
9:34 AM,-2.2,-5.8,85,30.35,5.0,Calm,Calm,-,N/A,,Clear,0,2013-02-15 15:34:00
9:55 AM,-2.2,-5.8,85,30.36,7.0,Calm,Calm,-,N/A,,Clear,0,2013-02-15 15:55:00
10:15 AM,-0.4,-2.2,92,30.36,10.0,Calm,Calm,-,N/A,,Scattered Clouds,0,2013-02-15 16:15:00
10:34 AM,1.4,-0.4,92,30.36,7.0,Calm,Calm,-,N/A,,Scattered Clouds,0,2013-02-15 16:34:00
10:55 AM,1.4,-0.4,92,30.36,5.0,Calm,Calm,-,N/A,,Scattered Clouds,0,2013-02-15 16:55:00
11:14 AM,1.4,-0.4,92,30.37,5.0,Calm,Calm,-,N/A,,Scattered Clouds,0,2013-02-15 17:14:00
11:55 AM,3.2,1.4,92,30.38,7.0,Calm,Calm,-,N/A,,Clear,0,2013-02-15 17:55:00
12:14 PM,3.2,1.4,92,30.38,7.0,Calm,Calm,-,N/A,,Clear,0,2013-02-15 18:14:00
12:35 PM,5.0,1.4,85,30.38,7.0,Calm,Calm,-,N/A,,Clear,0,2013-02-15 18:35:00
12:55 PM,6.8,3.2,85,30.38,7.0,Calm,Calm,-,N/A,,Clear,0,2013-02-15 18:55:00
1:15 PM,6.8,3.2,85,30.38,10.0,Calm,Calm,-,N/A,,Scattered Clouds,0,2013-02-15 19:15:00
1:35 PM,6.8,5.0,92,30.37,10.0,Calm,Calm,-,N/A,,Overcast,0,2013-02-15 19:35:00
1:54 PM,6.8,5.0,92,30.37,10.0,Calm,Calm,-,N/A,,Overcast,0,2013-02-15 19:54:00
2:15 PM,6.8,6.8,100,30.36,7.0,Calm,Calm,-,N/A,,Overcast,0,2013-02-15 20:15:00
2:35 PM,8.6,6.8,92,30.35,10.0,Calm,Calm,-,N/A,,Scattered Clouds,0,2013-02-15 20:35:00
2:54 PM,10.4,6.8,85,30.34,10.0,Calm,Calm,-,N/A,,Clear,0,2013-02-15 20:54:00
3:15 PM,8.6,8.6,100,30.34,7.0,Calm,Calm,-,N/A,,Clear,0,2013-02-15 21:15:00
3:35 PM,8.6,6.8,92,30.35,10.0,SSW,4.6,-,N/A,,Clear,210,2013-02-15 21:35:00
3:54 PM,8.6,6.8,92,30.35,10.0,SW,3.5,-,N/A,,Clear,220,2013-02-15 21:54:00
4:15 PM,8.6,6.8,92,30.35,10.0,SSW,3.5,-,N/A,,Clear,210,2013-02-15 22:15:00
4:35 PM,8.6,5.0,85,30.34,10.0,WSW,5.8,-,N/A,,Clear,240,2013-02-15 22:35:00
4:54 PM,8.6,5.0,85,30.34,10.0,WSW,8.1,-,N/A,,Clear,240,2013-02-15 22:54:00
5:15 PM,6.8,3.2,85,30.34,10.0,WSW,4.6,-,N/A,,Mostly Cloudy,240,2013-02-15 23:15:00
5:34 PM,8.6,5.0,85,30.33,10.0,SW,5.8,-,N/A,,Overcast,230,2013-02-15 23:34:00
5:55 PM,8.6,5.0,85,30.33,10.0,SW,4.6,-,N/A,,Overcast,230,2013-02-15 23:55:00
6:15 PM,8.6,6.8,92,30.32,10.0,SW,5.8,-,N/A,,Overcast,220,2013-02-16 00:15:00
6:34 PM,8.6,5.0,85,30.31,5.0,SW,6.9,-,N/A,Snow,Light Snow,230,2013-02-16 00:34:00
6:55 PM,6.8,3.2,85,30.31,10.0,SSW,4.6,-,N/A,,Scattered Clouds,210,2013-02-16 00:55:00
7:15 PM,5.0,3.2,92,30.30,10.0,SW,4.6,-,N/A,,Clear,230,2013-02-16 01:15:00
7:34 PM,5.0,3.2,92,30.30,10.0,SW,5.8,-,N/A,,Scattered Clouds,230,2013-02-16 01:34:00
7:55 PM,5.0,3.2,92,30.29,10.0,SW,5.8,-,N/A,,Clear,220,2013-02-16 01:55:00
8:15 PM,3.2,3.2,100,30.29,10.0,SW,4.6,-,N/A,,Clear,230,2013-02-16 02:15:00
8:34 PM,3.2,3.2,100,30.28,10.0,Calm,Calm,-,N/A,,Clear,0,2013-02-16 02:34:00
8:55 PM,3.2,1.4,92,30.27,10.0,WSW,4.6,-,N/A,,Clear,250,2013-02-16 02:55:00
9:15 PM,1.4,-0.4,92,30.27,10.0,West,5.8,-,N/A,,Clear,260,2013-02-16 03:15:00
9:34 PM,1.4,-0.4,92,30.27,10.0,SW,6.9,-,N/A,,Clear,230,2013-02-16 03:34:00
9:55 PM,1.4,-0.4,92,30.27,10.0,WSW,4.6,-,N/A,,Clear,240,2013-02-16 03:55:00
10:14 PM,1.4,-0.4,92,30.26,10.0,SW,3.5,-,N/A,,Clear,220,2013-02-16 04:14:00
10:35 PM,-0.4,-2.2,92,30.25,10.0,SW,3.5,-,N/A,,Clear,230,2013-02-16 04:35:00
10:55 PM,-0.4,-2.2,92,30.24,10.0,Calm,Calm,-,N/A,,Clear,0,2013-02-16 04:55:00
11:14 PM,-0.4,-2.2,92,30.24,10.0,SW,3.5,-,N/A,,Clear,220,2013-02-16 05:14:00
11:35 PM,-0.4,-2.2,92,30.23,10.0,SW,3.5,-,N/A,,Clear,220,2013-02-16 05:35:00
11:55 PM,-0.4,-2.2,92,30.23,10.0,Calm,Calm,-,N/A,,Clear,0,2013-02-16 05:55:00